LNI787 WAAA-WARR

Flight info

Callsign LNI787
Flight time 1h 6m
Altitude 36000
Route ENDOG W32 SUSIL W32N KOLTA
Aircraft B738/M-SDE2E3FGHIRWXY/LB1

Departure

Time 2026-04-22 08:52
Airport Sultan Hasanuddin International Airport (WAAA)

Arrival

Time 2026-04-22 09:58
Airport Juanda International Airport (WARR)
Time Latitude Longitude Altitude Speed Heading
2026-04-22 08:27 -5.07759 119.54741 40 ft 0 kts 300°
2026-04-22 08:41 -5.07763 119.54747 37 ft 3 kts 300°
2026-04-22 08:41 -5.07773 119.54765 40 ft 3 kts 300°
2026-04-22 08:41 -5.07783 119.54783 40 ft 3 kts 300°
2026-04-22 08:41 -5.07793 119.54800 40 ft 3 kts 300°
2026-04-22 08:42 -5.07803 119.54815 39 ft 3 kts 322°
2026-04-22 08:42 -5.07819 119.54823 40 ft 3 kts 360°
2026-04-22 08:42 -5.07839 119.54820 40 ft 3 kts 18°
2026-04-22 08:42 -5.07857 119.54813 40 ft 2 kts 28°
2026-04-22 08:43 -5.07861 119.54811 40 ft 0 kts 30°
2026-04-22 08:44 -5.07860 119.54812 40 ft 1 kts 30°
2026-04-22 08:44 -5.07831 119.54829 40 ft 7 kts 34°
2026-04-22 08:44 -5.07788 119.54855 40 ft 7 kts 30°
2026-04-22 08:44 -5.07746 119.54879 40 ft 7 kts 30°
2026-04-22 08:45 -5.07705 119.54903 40 ft 7 kts 30°
2026-04-22 08:45 -5.07664 119.54927 39 ft 7 kts 30°
2026-04-22 08:45 -5.07625 119.54950 40 ft 7 kts 30°
2026-04-22 08:45 -5.07589 119.54977 39 ft 6 kts 53°
2026-04-22 08:46 -5.07583 119.55019 40 ft 6 kts 108°
2026-04-22 08:46 -5.07606 119.55057 40 ft 6 kts 120°
2026-04-22 08:46 -5.07620 119.55097 40 ft 6 kts 93°
2026-04-22 08:46 -5.07604 119.55134 39 ft 6 kts 47°
2026-04-22 08:47 -5.07567 119.55159 40 ft 7 kts 29°
2026-04-22 08:47 -5.07520 119.55185 40 ft 9 kts 29°
2026-04-22 08:47 -5.07462 119.55219 39 ft 10 kts 29°
2026-04-22 08:47 -5.07404 119.55253 39 ft 10 kts 30°
2026-04-22 08:48 -5.07347 119.55285 39 ft 9 kts 30°
2026-04-22 08:48 -5.07276 119.55326 39 ft 15 kts 30°
2026-04-22 08:48 -5.07164 119.55392 38 ft 19 kts 30°
2026-04-22 08:48 -5.07046 119.55460 39 ft 19 kts 30°
2026-04-22 08:49 -5.06932 119.55525 40 ft 19 kts 30°
2026-04-22 08:49 -5.06821 119.55589 38 ft 18 kts 30°
2026-04-22 08:49 -5.06721 119.55648 40 ft 6 kts 30°
2026-04-22 08:49 -5.06687 119.55668 40 ft 6 kts 36°
2026-04-22 08:50 -5.06667 119.55701 37 ft 6 kts 78°
2026-04-22 08:50 -5.06674 119.55742 39 ft 6 kts 117°
2026-04-22 08:50 -5.06703 119.55777 41 ft 7 kts 130°
2026-04-22 08:50 -5.06736 119.55812 41 ft 7 kts 141°
2026-04-22 08:51 -5.06785 119.55813 40 ft 8 kts 208°
2026-04-22 08:51 -5.06862 119.55770 39 ft 30 kts 210°
2026-04-22 08:51 -5.07269 119.55533 38 ft 104 kts 210°
2026-04-22 08:51 -5.08083 119.55070 41 ft 163 kts 208°
2026-04-22 08:52 -5.09141 119.54435 486 ft 182 kts 211°
2026-04-22 08:52 -5.10205 119.53793 1531 ft 170 kts 211°
2026-04-22 08:52 -5.10952 119.52884 2348 ft 177 kts 250°
2026-04-22 08:52 -5.11365 119.51620 2765 ft 206 kts 250°
2026-04-22 08:53 -5.11826 119.50145 2970 ft 236 kts 252°
2026-04-22 08:53 -5.12353 119.48511 3316 ft 252 kts 252°
2026-04-22 08:53 -5.12895 119.46799 3753 ft 267 kts 252°
2026-04-22 08:53 -5.13469 119.44983 4325 ft 278 kts 252°
2026-04-22 08:54 -5.13867 119.43725 4868 ft 281 kts 252°
2026-04-22 08:54 -5.14662 119.41251 6066 ft 284 kts 252°
2026-04-22 08:54 -5.15070 119.39996 6582 ft 288 kts 252°
2026-04-22 08:54 -5.15698 119.38073 7389 ft 292 kts 252°
2026-04-22 08:55 -5.16336 119.36128 8180 ft 296 kts 252°
2026-04-22 08:55 -5.16985 119.34155 8930 ft 300 kts 252°
2026-04-22 08:55 -5.17631 119.32146 9690 ft 304 kts 252°
2026-04-22 08:55 -5.18301 119.30104 10339 ft 315 kts 252°
2026-04-22 08:56 -5.19030 119.27934 10512 ft 339 kts 252°
2026-04-22 08:56 -5.19807 119.25622 10812 ft 358 kts 252°
2026-04-22 08:56 -5.20605 119.23227 11350 ft 365 kts 252°
2026-04-22 08:56 -5.21415 119.20793 12000 ft 370 kts 252°
2026-04-22 08:57 -5.22232 119.18334 12637 ft 374 kts 252°
2026-04-22 08:57 -5.23058 119.15849 13310 ft 377 kts 252°
2026-04-22 08:57 -5.23890 119.13348 13971 ft 379 kts 252°
2026-04-22 08:57 -5.24728 119.10827 14569 ft 383 kts 252°
2026-04-22 08:58 -5.25573 119.08278 15162 ft 387 kts 252°
2026-04-22 08:58 -5.26426 119.05706 15750 ft 390 kts 252°
2026-04-22 08:58 -5.27286 119.03117 16328 ft 393 kts 252°
2026-04-22 08:58 -5.28153 119.00503 16889 ft 396 kts 252°
2026-04-22 08:59 -5.29027 118.97869 17426 ft 399 kts 252°
2026-04-22 08:59 -5.29908 118.95213 17945 ft 403 kts 252°
2026-04-22 08:59 -5.30795 118.92538 18442 ft 406 kts 252°
2026-04-22 08:59 -5.31690 118.89840 18939 ft 409 kts 252°
2026-04-22 09:00 -5.32590 118.87126 19416 ft 412 kts 252°
2026-04-22 09:00 -5.33498 118.84386 19886 ft 415 kts 252°
2026-04-22 09:00 -5.34414 118.81626 20325 ft 418 kts 252°
2026-04-22 09:00 -5.35336 118.78849 20783 ft 420 kts 252°
2026-04-22 09:01 -5.36261 118.76061 21222 ft 423 kts 252°
2026-04-22 09:01 -5.37193 118.73249 21625 ft 426 kts 252°
2026-04-22 09:01 -5.38130 118.70420 22015 ft 429 kts 252°
2026-04-22 09:01 -5.39063 118.67606 22400 ft 432 kts 252°
2026-04-22 09:02 -5.40013 118.64738 22768 ft 434 kts 252°
2026-04-22 09:02 -5.40967 118.61856 23129 ft 437 kts 252°
2026-04-22 09:02 -5.41926 118.58957 23479 ft 439 kts 252°
2026-04-22 09:02 -5.42893 118.56037 23824 ft 442 kts 252°
2026-04-22 09:03 -5.43864 118.53103 24157 ft 444 kts 252°
2026-04-22 09:03 -5.44839 118.50156 24500 ft 446 kts 252°
2026-04-22 09:03 -5.45816 118.47204 24845 ft 447 kts 252°
2026-04-22 09:03 -5.46799 118.44231 25155 ft 449 kts 252°
2026-04-22 09:04 -5.47786 118.41247 25442 ft 452 kts 252°
2026-04-22 09:04 -5.48777 118.38253 25737 ft 454 kts 252°
2026-04-22 09:04 -5.49773 118.35241 26030 ft 456 kts 252°
2026-04-22 09:04 -5.50774 118.32213 26306 ft 458 kts 251°
2026-04-22 09:05 -5.51779 118.29170 26568 ft 460 kts 251°
2026-04-22 09:05 -5.52788 118.26113 26852 ft 462 kts 251°
2026-04-22 09:05 -5.53801 118.23048 27131 ft 464 kts 251°
2026-04-22 09:05 -5.54816 118.19971 27393 ft 465 kts 251°
2026-04-22 09:06 -5.55838 118.16880 27655 ft 467 kts 251°
2026-04-22 09:06 -5.56862 118.13781 27885 ft 469 kts 251°
2026-04-22 09:06 -5.57892 118.10663 28102 ft 472 kts 251°
2026-04-22 09:06 -5.58925 118.07532 28335 ft 473 kts 251°
2026-04-22 09:07 -5.59963 118.04389 28581 ft 475 kts 251°
2026-04-22 09:07 -5.61002 118.01242 28820 ft 476 kts 251°
2026-04-22 09:07 -5.62032 117.98121 29046 ft 478 kts 251°
2026-04-22 09:07 -5.63091 117.94911 29269 ft 479 kts 251°
2026-04-22 09:08 -5.64125 117.91776 29482 ft 481 kts 251°
2026-04-22 09:08 -5.65176 117.88584 29690 ft 482 kts 251°
2026-04-22 09:08 -5.66233 117.85377 29867 ft 484 kts 251°
2026-04-22 09:08 -5.67293 117.82162 30070 ft 486 kts 251°
2026-04-22 09:09 -5.68353 117.78940 30280 ft 487 kts 251°
2026-04-22 09:09 -5.69418 117.75709 30481 ft 488 kts 251°
2026-04-22 09:09 -5.70485 117.72470 30694 ft 489 kts 251°
2026-04-22 09:09 -5.71552 117.69228 30904 ft 490 kts 251°
2026-04-22 09:10 -5.72619 117.65985 31179 ft 489 kts 251°
2026-04-22 09:10 -5.73684 117.62749 31489 ft 487 kts 251°
2026-04-22 09:10 -5.74742 117.59535 31856 ft 483 kts 251°
2026-04-22 09:10 -5.75794 117.56341 32167 ft 482 kts 251°
2026-04-22 09:11 -5.76845 117.53146 32418 ft 482 kts 251°
2026-04-22 09:11 -5.77895 117.49955 32686 ft 481 kts 251°
2026-04-22 09:11 -5.78942 117.46769 32964 ft 479 kts 251°
2026-04-22 09:11 -5.79983 117.43600 33274 ft 477 kts 251°
2026-04-22 09:12 -5.81022 117.40439 33552 ft 476 kts 251°
2026-04-22 09:12 -5.82059 117.37285 33816 ft 475 kts 251°
2026-04-22 09:12 -5.83094 117.34133 34088 ft 474 kts 251°
2026-04-22 09:12 -5.84126 117.30992 34383 ft 473 kts 251°
2026-04-22 09:13 -5.85156 117.27854 34643 ft 472 kts 251°
2026-04-22 09:13 -5.86181 117.24730 34929 ft 471 kts 251°
2026-04-22 09:13 -5.87205 117.21611 35206 ft 470 kts 251°
2026-04-22 09:13 -5.88233 117.18497 35443 ft 469 kts 251°
2026-04-22 09:14 -5.89283 117.15395 35660 ft 469 kts 251°
2026-04-22 09:14 -5.90346 117.12303 35848 ft 469 kts 251°
2026-04-22 09:14 -5.91418 117.09197 35824 ft 471 kts 251°
2026-04-22 09:15 -5.93552 117.02999 35822 ft 468 kts 251°
2026-04-22 09:15 -5.95663 116.96834 35833 ft 466 kts 251°
2026-04-22 09:16 -5.97765 116.90686 35830 ft 465 kts 251°
2026-04-22 09:16 -5.99859 116.84555 35842 ft 463 kts 251°
2026-04-22 09:17 -6.01946 116.78441 35844 ft 463 kts 251°
2026-04-22 09:17 -6.04034 116.72322 35847 ft 463 kts 251°
2026-04-22 09:18 -6.06126 116.66191 35849 ft 464 kts 251°
2026-04-22 09:18 -6.08207 116.60089 35848 ft 465 kts 251°
2026-04-22 09:19 -6.10307 116.53931 35846 ft 467 kts 251°
2026-04-22 09:19 -6.12414 116.47747 35846 ft 468 kts 251°
2026-04-22 09:20 -6.14525 116.41550 35844 ft 469 kts 251°
2026-04-22 09:20 -6.16640 116.35336 35850 ft 470 kts 251°
2026-04-22 09:21 -6.18777 116.29072 35857 ft 471 kts 251°
2026-04-22 09:21 -6.20893 116.22882 35850 ft 472 kts 251°
2026-04-22 09:22 -6.23026 116.16643 35841 ft 472 kts 251°
2026-04-22 09:22 -6.25157 116.10405 35845 ft 472 kts 251°
2026-04-22 09:23 -6.27283 116.04176 35840 ft 471 kts 251°
2026-04-22 09:23 -6.29404 115.97957 35841 ft 470 kts 251°
2026-04-22 09:24 -6.31524 115.91742 35845 ft 469 kts 251°
2026-04-22 09:24 -6.33639 115.85534 35848 ft 469 kts 251°
2026-04-22 09:25 -6.35750 115.79334 35841 ft 469 kts 251°
2026-04-22 09:25 -6.37865 115.73132 35839 ft 468 kts 251°
2026-04-22 09:26 -6.39972 115.66941 35846 ft 468 kts 251°
2026-04-22 09:26 -6.42075 115.60758 35840 ft 467 kts 251°
2026-04-22 09:27 -6.44178 115.54576 35848 ft 467 kts 251°
2026-04-22 09:27 -6.46278 115.48396 35839 ft 467 kts 251°
2026-04-22 09:28 -6.48378 115.42216 35843 ft 467 kts 251°
2026-04-22 09:28 -6.50478 115.36035 35844 ft 467 kts 251°
2026-04-22 09:29 -6.52577 115.29853 35843 ft 467 kts 251°
2026-04-22 09:29 -6.54679 115.23660 35838 ft 468 kts 251°
2026-04-22 09:30 -6.56436 115.17364 35846 ft 468 kts 259°
2026-04-22 09:30 -6.57312 115.14219 35823 ft 468 kts 246°
2026-04-22 09:30 -6.58663 115.11249 35840 ft 467 kts 244°
2026-04-22 09:31 -6.61539 115.05382 35829 ft 468 kts 243°
2026-04-22 09:31 -6.64387 114.99480 35407 ft 474 kts 244°
2026-04-22 09:31 -6.65800 114.96481 34834 ft 473 kts 244°
2026-04-22 09:32 -6.67196 114.93481 34168 ft 474 kts 244°
2026-04-22 09:32 -6.68585 114.90479 33566 ft 472 kts 244°
2026-04-22 09:32 -6.69960 114.87499 33103 ft 468 kts 245°
2026-04-22 09:32 -6.71322 114.84544 32611 ft 464 kts 244°
2026-04-22 09:33 -6.72676 114.81607 32130 ft 460 kts 245°
2026-04-22 09:33 -6.74020 114.78695 31647 ft 457 kts 245°
2026-04-22 09:33 -6.75351 114.75811 31180 ft 454 kts 245°
2026-04-22 09:33 -6.76677 114.72940 30708 ft 450 kts 245°
2026-04-22 09:34 -6.77992 114.70092 30231 ft 447 kts 245°
2026-04-22 09:34 -6.79298 114.67264 29776 ft 444 kts 245°
2026-04-22 09:34 -6.80591 114.64461 29308 ft 441 kts 245°
2026-04-22 09:35 -6.83139 114.58940 28361 ft 434 kts 245°
2026-04-22 09:35 -6.84406 114.56194 27889 ft 431 kts 245°
2026-04-22 09:35 -6.85680 114.53432 27410 ft 428 kts 245°
2026-04-22 09:35 -6.86931 114.50720 26939 ft 426 kts 245°
2026-04-22 09:36 -6.88173 114.48027 26477 ft 423 kts 245°
2026-04-22 09:36 -6.89388 114.45389 26016 ft 420 kts 245°
2026-04-22 09:36 -6.90613 114.42732 25559 ft 417 kts 245°
2026-04-22 09:36 -6.91830 114.40095 25095 ft 414 kts 245°
2026-04-22 09:37 -6.93037 114.37474 24632 ft 412 kts 245°
2026-04-22 09:37 -6.94237 114.34869 24184 ft 409 kts 245°
2026-04-22 09:37 -6.95430 114.32279 23730 ft 407 kts 245°
2026-04-22 09:37 -6.96615 114.29707 23274 ft 404 kts 245°
2026-04-22 09:38 -6.97794 114.27148 22829 ft 401 kts 245°
2026-04-22 09:38 -6.98965 114.24605 22381 ft 399 kts 245°
2026-04-22 09:38 -7.00127 114.22081 21939 ft 397 kts 245°
2026-04-22 09:38 -7.01284 114.19567 21496 ft 394 kts 245°
2026-04-22 09:39 -7.02432 114.17072 21051 ft 392 kts 245°
2026-04-22 09:39 -7.03574 114.14590 20617 ft 389 kts 245°
2026-04-22 09:39 -7.04707 114.12126 20190 ft 387 kts 245°
2026-04-22 09:39 -7.05837 114.09670 19744 ft 385 kts 246°
2026-04-22 09:40 -7.06957 114.07236 19312 ft 383 kts 246°
2026-04-22 09:40 -7.08073 114.04809 18886 ft 381 kts 246°
2026-04-22 09:40 -7.09182 114.02397 18457 ft 378 kts 246°
2026-04-22 09:40 -7.10284 114.00000 18030 ft 376 kts 246°
2026-04-22 09:41 -7.11381 113.97614 17604 ft 374 kts 246°
2026-04-22 09:41 -7.12103 113.96042 17324 ft 373 kts 246°
2026-04-22 09:41 -7.13189 113.93677 16903 ft 371 kts 246°
2026-04-22 09:41 -7.14269 113.91326 16483 ft 369 kts 246°
2026-04-22 09:42 -7.15344 113.88984 16065 ft 367 kts 246°
2026-04-22 09:42 -7.16412 113.86657 15648 ft 365 kts 246°
2026-04-22 09:42 -7.17473 113.84346 15236 ft 363 kts 246°
2026-04-22 09:42 -7.18528 113.82049 14823 ft 360 kts 246°
2026-04-22 09:43 -7.19579 113.79764 14414 ft 358 kts 246°
2026-04-22 09:43 -7.20621 113.77493 14012 ft 356 kts 246°
2026-04-22 09:43 -7.21657 113.75233 13599 ft 354 kts 246°
2026-04-22 09:43 -7.22687 113.72988 13192 ft 352 kts 245°
2026-04-22 09:44 -7.23712 113.70751 12786 ft 350 kts 245°
2026-04-22 09:44 -7.24729 113.68534 12381 ft 348 kts 245°
2026-04-22 09:44 -7.25742 113.66325 11983 ft 346 kts 245°
2026-04-22 09:44 -7.26749 113.64128 11583 ft 344 kts 245°
2026-04-22 09:45 -7.27747 113.61949 11182 ft 342 kts 245°
2026-04-22 09:45 -7.28741 113.59782 10799 ft 340 kts 245°
2026-04-22 09:45 -7.29730 113.57624 10435 ft 337 kts 245°
2026-04-22 09:45 -7.30699 113.55512 10279 ft 327 kts 245°
2026-04-22 09:46 -7.31641 113.53460 10115 ft 319 kts 246°
2026-04-22 09:46 -7.32556 113.51462 9977 ft 309 kts 246°
2026-04-22 09:46 -7.33445 113.49521 9843 ft 301 kts 246°
2026-04-22 09:46 -7.34316 113.47619 9549 ft 298 kts 246°
2026-04-22 09:47 -7.35183 113.45728 9267 ft 296 kts 246°
2026-04-22 09:47 -7.36036 113.43866 9091 ft 289 kts 246°
2026-04-22 09:47 -7.36874 113.42034 8815 ft 287 kts 246°
2026-04-22 09:47 -7.37706 113.40215 8544 ft 285 kts 246°
2026-04-22 09:48 -7.38533 113.38405 8255 ft 284 kts 246°
2026-04-22 09:48 -7.39357 113.36604 7971 ft 282 kts 246°
2026-04-22 09:48 -7.40177 113.34812 7679 ft 281 kts 246°
2026-04-22 09:48 -7.40994 113.33027 7395 ft 280 kts 246°
2026-04-22 09:49 -7.41805 113.31248 7108 ft 279 kts 246°
2026-04-22 09:49 -7.42615 113.29479 6820 ft 278 kts 246°
2026-04-22 09:49 -7.43422 113.27717 6534 ft 276 kts 246°
2026-04-22 09:49 -7.44224 113.25963 6250 ft 275 kts 246°
2026-04-22 09:50 -7.45020 113.24219 5972 ft 273 kts 246°
2026-04-22 09:50 -7.45439 113.22378 5674 ft 271 kts 276°
2026-04-22 09:50 -7.45130 113.20542 5480 ft 270 kts 282°
2026-04-22 09:50 -7.44754 113.18692 5234 ft 271 kts 282°
2026-04-22 09:51 -7.44387 113.16829 4980 ft 270 kts 282°
2026-04-22 09:51 -7.44038 113.14977 4722 ft 268 kts 281°
2026-04-22 09:51 -7.43714 113.13177 4652 ft 253 kts 281°
2026-04-22 09:51 -7.43413 113.11474 4539 ft 240 kts 281°
2026-04-22 09:52 -7.43134 113.09862 4427 ft 227 kts 281°
2026-04-22 09:52 -7.42874 113.08339 4312 ft 215 kts 281°
2026-04-22 09:52 -7.42623 113.06885 4154 ft 207 kts 281°
2026-04-22 09:52 -7.42373 113.05462 4073 ft 207 kts 282°
2026-04-22 09:53 -7.42113 113.04031 3981 ft 209 kts 281°
2026-04-22 09:53 -7.41867 113.02574 3895 ft 212 kts 280°
2026-04-22 09:53 -7.41623 113.01086 3669 ft 217 kts 280°
2026-04-22 09:53 -7.41381 112.99598 3441 ft 214 kts 280°
2026-04-22 09:54 -7.41142 112.98131 3210 ft 210 kts 280°
2026-04-22 09:54 -7.40908 112.96694 3001 ft 207 kts 280°
2026-04-22 09:54 -7.40682 112.95291 2824 ft 198 kts 280°
2026-04-22 09:54 -7.40466 112.93959 2681 ft 188 kts 280°
2026-04-22 09:55 -7.40255 112.92665 2461 ft 187 kts 279°
2026-04-22 09:55 -7.40047 112.91387 2238 ft 183 kts 279°
2026-04-22 09:55 -7.39840 112.90116 1998 ft 185 kts 279°
2026-04-22 09:55 -7.39638 112.88874 1788 ft 173 kts 279°
2026-04-22 09:56 -7.39452 112.87723 1531 ft 158 kts 279°
2026-04-22 09:56 -7.39278 112.86654 1344 ft 152 kts 279°
2026-04-22 09:56 -7.39109 112.85615 1153 ft 149 kts 278°
2026-04-22 09:56 -7.38941 112.84580 966 ft 151 kts 278°
2026-04-22 09:57 -7.38771 112.83529 771 ft 152 kts 278°
2026-04-22 09:57 -7.38594 112.82480 544 ft 152 kts 278°
2026-04-22 09:57 -7.38426 112.81432 346 ft 150 kts 278°
2026-04-22 09:57 -7.38263 112.80395 145 ft 149 kts 278°
2026-04-22 09:58 -7.38095 112.79377 13 ft 142 kts 279°
2026-04-22 09:58 -7.37961 112.78578 10 ft 85 kts 278°
2026-04-22 09:58 -7.37894 112.78202 8 ft 24 kts 294°
2026-04-22 09:58 -7.37870 112.78162 7 ft 6 kts 304°
2026-04-22 09:59 -7.37828 112.78105 8 ft 12 kts 309°
2026-04-22 09:59 -7.37775 112.78041 9 ft 12 kts 310°
2026-04-22 09:59 -7.37710 112.78051 8 ft 11 kts 72°
2026-04-22 09:59 -7.37718 112.78130 8 ft 11 kts 99°
2026-04-22 10:00 -7.37730 112.78206 8 ft 11 kts 99°
2026-04-22 10:00 -7.37742 112.78281 8 ft 11 kts 99°
2026-04-22 10:00 -7.37754 112.78352 8 ft 10 kts 99°
2026-04-22 10:00 -7.37766 112.78422 8 ft 10 kts 99°
2026-04-22 10:01 -7.37777 112.78490 8 ft 10 kts 99°
2026-04-22 10:01 -7.37789 112.78567 8 ft 13 kts 99°
2026-04-22 10:01 -7.37803 112.78657 8 ft 11 kts 99°
2026-04-22 10:01 -7.37817 112.78744 8 ft 14 kts 99°
2026-04-22 10:02 -7.37834 112.78851 8 ft 17 kts 99°
2026-04-22 10:02 -7.37854 112.78971 8 ft 17 kts 99°
2026-04-22 10:02 -7.37854 112.79045 8 ft 10 kts 63°
2026-04-22 10:02 -7.37797 112.79076 8 ft 9 kts
2026-04-22 10:03 -7.37734 112.79086 8 ft 9 kts
2026-04-22 10:03 -7.37671 112.79097 8 ft 9 kts
2026-04-22 10:03 -7.37627 112.79117 8 ft 5 kts 57°
2026-04-22 10:03 -7.37629 112.79153 8 ft 5 kts 96°
2026-04-22 10:04 -7.37608 112.79175 8 ft 5 kts 19°
2026-04-22 10:04 -7.37577 112.79180 8 ft 5 kts
2026-04-22 10:04 -7.37553 112.79184 8 ft 2 kts
2026-04-22 10:04 -7.37546 112.79186 8 ft 0 kts